Regional Weather Roundup
Issued by NWS

Home | Current Version | Previous Version | Text Only | Print | Product List | Glossary On
Versions: 1 2 3 4 5 6 7 8 9 10 11 12 13 14 15 16 17 18 19 20 21 22 23 24 25 26 27 28 29 30 31 32 33 34 35 36 37 38 39 40 41 42 43 44 45 46 47 48 49 50
020
ASUS44 KLUB 261310
RWRTX
WEST TEXAS WEATHER ROUNDUP
NATIONAL WEATHER SERVICE LUBBOCK TX
700 AM CST SUN FEB 26 2017

NOTE: "FAIR" INDICATES FEW OR NO CLOUDS BELOW 12,000 FEET WITH NO
SIGNIFICANT WEATHER AND/OR OBSTRUCTIONS TO VISIBILITY.

TXZ004-006>008-010-012-014-016-OKZ002-261400-
TEXAS PANHANDLE/OKLAHOMA PANHANDLE

CITY           SKY/WX    TMP DP  RH WIND       PRES   REMARKS
AMARILLO       CLEAR     31  24  75 NW5       29.82R WCI  26
BORGER         CLEAR     33  24  69 CALM      29.83R
CANADIAN       CLEAR     30  22  73 SW3       29.84S
DALHART        CLEAR     24   6  46 NW7       29.84R WCI  16
DUMAS          CLEAR     24   9  52 W6        29.82R WCI  17
GUYMON         CLEAR     27   9  46 NW6       29.83R WCI  20
HEREFORD       CLEAR     29  24  80 NW5       29.84R WCI  24
PAMPA          CLEAR     29  23  77 E5        29.83S WCI  24
PERRYTON       CLEAR     28  22  79 CALM      29.82R
$$

TXZ026-029-035-045-048-261400-
SOUTHERN PANHANDLE/SOUTH PLAINS/ROLLING PLAINS

CITY           SKY/WX    TMP DP  RH WIND       PRES   REMARKS
CHILDRESS      PTCLDY    35  27  72 SE9       29.84F WCI  28
SEMINOLE       PTCLDY    39  30  68 SW9       29.87R WCI  33
LUBBOCK        MOCLDY    34  27  75 W9        29.85R WCI  27
PLAINVIEW      CLEAR     31  24  75 W8        29.82R WCI  23
SNYDER         CLOUDY    39  31  71 S12       29.87F WCI  32
$$

TXZ052-054-060>062-072-078-127-140-154-169-261400-
PERMIAN BASIN/CONCHO VALLEY/BIG COUNTRY/EDWARDS PLATEAU

CITY           SKY/WX    TMP DP  RH WIND       PRES   REMARKS
ABILENE        CLOUDY    44  31  60 S12       29.89S
BIG SPRING     PTCLDY    44  35  69 S7        29.91R
BROWNWOOD      MOCLDY    37  32  81 SE6       29.96R WCI  33
JUNCTION       CLOUDY    44  32  62 CALM      29.94S
MIDLAND        MOCLDY    45  30  55 SW8       29.87S
ODESSA           N/A     46  32  58 MISG      29.88S
SAN ANGELO     CLOUDY    46  37  71 NE3       29.93R
SONORA         CLOUDY    52  50  93 S9G15     29.98R FOG
SWEETWATER     CLOUDY    44  32  63 S13       29.91R
WINK           FLURRIES  36  28  73 SE5       29.87R WCI  32
$$

TXZ055-058-074-075-080-082-261400-
FAR WEST/SOUTHWEST MOUNTAINS/TRANS PECOS

CITY           SKY/WX    TMP DP  RH WIND       PRES   REMARKS
ALPINE         CLEAR     43   6  21 S9        29.99R
DRYDEN           N/A     43  34  70 N8        29.92R
EL PASO        MOCLDY    43   8  23 E6        29.92S
FORT STOCKTON  CLEAR     39  28  64 S9        29.90R WCI  33
GUADALUPE PASS CLOUDY    40   4  22 W24G31      N/A  WCI  29
MARFA          CLOUDY    35   2  24 W3        29.97R
PECOS          CLOUDY    31  12  45 CALM      29.89R
PRESIDIO       FAIR      45   9  23 N8        29.94S
$$

TXZ014-016-019-021>030-083-261400
TEXAS TECH WEST TEXAS MESONET/TEXAS PANHANDLE/NORTHERN SOUTH PLAINS

CITY           SKY/WX    TMP DP  RH WIND       PRES   REMARKS
ABERNATHY 5ENE   N/A     32  27  80 SW9       29.85R WCI  24
AMARILLO 9NNE    N/A     25  21  84 SW1       29.84R
AMARILLO 7SSE    N/A     28  22  81 W8        29.83R WCI  19
AMHERST 1NE      N/A     29  21  74 W7        29.85R WCI  21
BOOTLEG 11WNW    N/A     28  16  58 W9        29.86R WCI  20
CANADIAN 6E      N/A     27  19  73 SE7       29.82F WCI  19
CAPROCK CYN SP   N/A     31  25  77 N6        29.83R WCI  26
CHILDRESS 2NNE   N/A     32  28  84 SE7       29.83F WCI  26
CLARENDON 2WSW   N/A     23  19  84 NW1       29.83S
CLAUDE 12SW      N/A     32  24  72 W6        29.81R WCI  26
DIMMITT 2NE      N/A     35  20  54 W12       29.83R WCI  27
FLOYDADA 2NNE    N/A     34  27  73 SW10      29.83S WCI  26
FRIONA 2NE       N/A     28  20  71 SW10      29.84R WCI  19
GOODLETT 3W      N/A     34  28  79 E2        29.85S
HART 3N          N/A     25  22  88 SW8       29.83R WCI  16
HEREFORD 2NW     N/A     27  20  76 NW2       29.83R
MCLEAN 1E        N/A     28  19  70 NE8       29.82R WCI  20
MEMPHIS 1NE      N/A     32  26  78 N3        29.85R
MULESHOE 2SSW    N/A     29  19  67 W9        29.86R WCI  20
OLTON 6S         N/A     28  23  83 SW9       29.84R WCI  19
PALO DURO SP     N/A     30  23  74 NW2       29.82R
PAMPA 2E         N/A     25  21  83 E3        29.82S
PLAINVIEW 1S     N/A     32  26  78 SW7       29.83R WCI  26
SILVERTON 7ESE   N/A     33  25  72 SW10      29.81S WCI  25
TULIA 2ENE       N/A     29  25  84 SW14      29.81S WCI  19
TURKEY 2WSW      N/A     29  24  82 NW7       29.82R WCI  22
UMBARGER 3NNE    N/A     27  22  83 SW7       29.83R WCI  19
$$

TXZ033>036-039>041-045>048-261400
TEXAS TECH WEST TEXAS MESONET/SOUTH PLAINS

CITY           SKY/WX    TMP DP  RH WIND       PRES   REMARKS
AIKEN 3WSW       N/A     32  26  78 SW9       29.84S WCI  24
ANDREWS 2NE      N/A     42  28  59 SW9       29.87S
ANTON 6SSW       N/A     29  24  82 W7        29.86R WCI  22
BROWNFIELD 2S    N/A     37  28  70 W9        29.86R WCI  30
DENVR CTY 7WNW   N/A     33  26  74 W6        29.86R WCI  28
GAIL 2ESE        N/A     32  26  79 CALM      29.86S
LAMESA 2SE       N/A     36  31  81 SW5       29.87S WCI  32
LEVELLAND 4S     N/A     31  24  76 SW8       29.85S WCI  23
LUBBOCK 3WNW     N/A     38  26  63 W8        29.86R WCI  32
MORTON 1ENE      N/A     32  21  62 W7        29.85S WCI  26
ODONNELL 1N      N/A     31  27  82 SW6       29.86S WCI  26
PLAINS 3N        N/A     29  24  78 W9        29.87R WCI  21
RALLS 1SE        N/A     35  28  74 W8        29.85R WCI  29
REESE CENTER     N/A     36  26  69 W10       29.85R WCI  28
SEAGRAVES 1SW    N/A     31  26  82 W3        29.86R
SEMINOLE 2NNE    N/A     39  28  64 SW8       29.86R WCI  34
SLATON 2NE       N/A     38  29  71 SW12      29.85R WCI  30
SNYDER 3E        N/A     39  31  75 S12       29.86F WCI  31
SUNDOWN 8SW      N/A     28  23  82 W9        29.87R WCI  19
TAHOKA 3NNE      N/A     35  28  73 SW6       29.85S WCI  30
WOLFFORTH 6SSW   N/A     30  23  74 W6        29.86R WCI  24
$$

TXZ031-032-036>038-042>044-261400-
TEXAS TECH WEST TEXAS MESONET/ROLLING PLAINS

CITY           SKY/WX    TMP DP  RH WIND       PRES   REMARKS
ASPERMONT 3NE    N/A     41  31  67 S3        29.87S
FLUVANNA 3WNW    N/A     37  29  71 S8        29.86S WCI  31
GRAHAM 5SSW      N/A     37  29  73 W7        29.86S WCI  31
GUTHRIE 10WSW    N/A     38  29  71 S10       29.84F WCI  31
HASKELL 1NW      N/A     42  30  61 S7        29.87S
JAYTON 1SSE      N/A     40  30  67 SW8       29.86S WCI  35
KNOX CITY 3NW    N/A     35  29  78 S7        29.88S WCI  29
LK A HENRY 1NW   N/A     42  28  56 SW8       29.86S
NORTHFIELD 1S    N/A     31  27  86 CALM      29.84R
ODELL 4ENE       N/A     33  29  83 SE9       29.89S WCI  26
PADUCAH 10SW     N/A     41  30  66 SW13      29.82S
POST 1NE         N/A     38  29  69 S8        29.85F WCI  32
RRING SPRGS 3N   N/A     40  31  71 SW9       29.83S WCI  34
SEYMOUR 3NW      N/A     37  30  75 SE7       29.88S WCI  31
SPUR 1W          N/A     33  27  77 CALM      29.84S
WEINERT 2NNE     N/A     37  29  73 S7        29.88R WCI  32
WHITE RVR 6NE    N/A     39  29  66 SW8       29.83S WCI  34
$$

TXZ052-054-060>062-072-078-127-140-154-169-261400-
TEXAS TECH WEST TEXAS MESONET/PERMIAN BASIN/
CONCHO VALLEY/BIG COUNTRY/EDWARDS PLATEAU

CITY           SKY/WX    TMP DP  RH WIND       PRES   REMARKS
COYANOSA 2N      N/A     34  25  68 SE8       29.90R WCI  27
JUNCTION 1SSW    N/A     44  37  76 CALM      29.96R
SAN ANGELO 7NW   N/A     45  33  62 NE2       29.93S
STRLNG CT 4WSW   N/A     44  38  78 S7        29.90S
ST LAWRNCE 5SW   N/A     44  38  78 S9        29.90R
SWEETWATR 11SW   N/A     41  31  67 S8        29.90R
WALL 1E          N/A     46  36  66 N3        29.94R
$$

TXZ055-058-074-075-080-082-261400-
TEXAS TECH WEST TEXAS MESONET/FAR WEST/SOUTHWEST MOUNTAINS/TRANS PECOS

CITY           SKY/WX    TMP DP  RH WIND       PRES   REMARKS
PRSMN GAP BBNP   N/A     40  26  58 SW3       29.94R
GUADLPE MTN NP   N/A     48   1  14 W26       29.90S
$$




USA.gov is the U.S. government's official web portal to all federal, state and local government web resources and services.